Weather History for Spokane Fairchild, WA

Change the Weather History Date:

Tuesday, August 12, 2014

  Actual Average Record
Temperature  
Mean Temperature 76 °F -  
Max Temperature 89 °F 83 °F 98 °F (2001)
Min Temperature 61 °F 56 °F 46 °F (2006)
Cooling Degree Days 10    
Growing Degree Days 26 (Base 50)    
Moisture  
Dew Point 53 °F    
Average Humidity 57    
Maximum Humidity 100    
Minimum Humidity 25    
Precipitation  
Precipitation 0.33 in - - ()
Sea Level Pressure  
Sea Level Pressure 29.89 in    
Wind  
Wind Speed 10 mph (ESE)    
Max Wind Speed 29 mph    
Max Gust Speed 37 mph    
Visibility 9 miles    
Events Rain , Thunderstorm    
Averages and records for this station are not official NWS values.
T = Trace of Precipitation, MM = Missing Value Source: NWS Daily Summary

Daily Weather History Graph

Daily Weather History Graph

Search for Another Location

Airport:

Trip Planner

Search our weather history database for the weather conditions in past years. The results will help you decide how hot, cold, wet, or windy it might be!

Date:

Astronomy

Aug. 12, 2014 Rise Set
Actual Time 5:42 AM PDT 8:07 PM PDT
Civil Twilight 5:08 AM PDT 8:41 PM PDT
Nautical Twilight 4:25 AM PDT 9:24 PM PDT
Astronomical Twilight 3:35 AM PDT 10:13 PM PDT
Moon 9:01 PM PDT (8/12) 8:19 AM PDT (8/12)
Length of Visible Light 15h 33m
Length of Day
14h 25m
Waning Gibbous, 94% of the Moon is Illuminated
Aug 12
Waning Gibbous
Aug 17
Last Quarter
Aug 25
New
Sep 2
First Quarter
Sep 8
Full

Hourly Weather History & Observations

Time (PDT) Temp. Dew Point Humidity Pressure Visibility Wind Dir Wind Speed Gust Speed Precip Events Conditions
12:58 AM 79.7 °F 40.6 °F 25% 29.88 in 10.0 mi ENE 9.2 mph - N/A   Clear
1:58 AM 75.2 °F 41.5 °F 30% 29.88 in 10.0 mi East 4.6 mph - N/A   Mostly Cloudy
2:04 AM 75.2 °F 42.8 °F 31% 29.95 in 10.0 mi ESE 8.1 mph - N/A Rain Light Rain
2:31 AM 75.2 °F 44.6 °F 34% 29.94 in 10.0 mi SSW 6.9 mph - N/A   Mostly Cloudy
2:58 AM 75.2 °F 44.4 °F 33% 29.89 in 10.0 mi South 8.1 mph - 0.00 in   Overcast
3:58 AM 74.3 °F 46.2 °F 37% 29.87 in 10.0 mi Variable 2.3 mph - N/A   Mostly Cloudy
4:58 AM 73.0 °F 46.8 °F 39% 29.88 in 10.0 mi West 4.6 mph - N/A   Mostly Cloudy
5:11 AM 75.2 °F 44.6 °F 34% 29.94 in 10.0 mi WNW 8.1 mph - N/A Rain Light Rain
5:21 AM 73.4 °F 46.4 °F 38% 29.96 in 10.0 mi NNW 4.6 mph - N/A   Mostly Cloudy
5:32 AM 71.6 °F 46.4 °F 41% 29.96 in 10.0 mi ENE 5.8 mph - N/A Rain Light Rain
5:42 AM 71.6 °F 48.2 °F 43% 29.96 in 10.0 mi NNW 5.8 mph - N/A   Overcast
5:51 AM 71.6 °F 48.2 °F 43% 29.94 in 10.0 mi NE 8.1 mph - N/A Rain Light Rain
5:58 AM 70.9 °F 49.6 °F 47% 29.88 in 10.0 mi North 6.9 mph - 0.00 in Rain Light Rain
6:38 AM 71.6 °F 48.2 °F 43% 29.92 in 10.0 mi NE 9.2 mph - N/A   Mostly Cloudy
6:58 AM 72.3 °F 46.9 °F 40% 29.86 in 10.0 mi NE 12.7 mph - 0.00 in   Scattered Clouds
7:58 AM 73.2 °F 48.2 °F 41% 29.91 in 10.0 mi East 3.5 mph - N/A   Mostly Cloudy
8:12 AM 73.4 °F 48.2 °F 41% 29.97 in 10.0 mi East 4.6 mph - N/A Rain Light Rain
8:25 AM 73.4 °F 51.8 °F 47% 29.96 in 10.0 mi East 2.3 mph - N/A   Mostly Cloudy
8:58 AM 76.3 °F 51.1 °F 41% 29.89 in 10.0 mi SSE 5.8 mph - 0.00 in   Mostly Cloudy
10:58 AM 81.3 °F 46.9 °F 30% 29.91 in 10.0 mi ENE 5.8 mph - N/A   Scattered Clouds
11:58 AM 83.7 °F 50.7 °F 32% 29.88 in 10.0 mi East 17.3 mph - N/A   Scattered Clouds
12:58 PM 84.9 °F 51.1 °F 31% 29.88 in 10.0 mi ENE 13.8 mph - N/A   Partly Cloudy
1:58 PM 89.1 °F 52.5 °F 29% 29.84 in 10.0 mi ENE 16.1 mph 20.7 mph N/A   Clear
2:58 PM 88.9 °F 52.3 °F 29% 29.81 in 10.0 mi East 16.1 mph - N/A   Partly Cloudy
3:58 PM 87.1 °F 52.7 °F 31% 29.80 in 10.0 mi ENE 18.4 mph - N/A   Clear
4:58 PM 88.7 °F 50.4 °F 27% 29.77 in 10.0 mi ENE 17.3 mph - N/A   Mostly Cloudy
5:58 PM 86.2 °F 50.9 °F 30% 29.78 in 10.0 mi ENE 16.1 mph - N/A   Mostly Cloudy
6:07 PM 86.0 °F 50.0 °F 29% 29.88 in 10.0 mi South 19.6 mph 21.9 mph N/A   Mostly Cloudy
6:33 PM 68.0 °F 60.8 °F 78% 29.88 in 9.0 mi SSW 26.5 mph 36.8 mph N/A   Mostly Cloudy
6:35 PM 66.2 °F 60.8 °F 83% 29.88 in 2.5 mi SSW 26.5 mph 36.8 mph N/A Rain Heavy Rain
6:37 PM 66.2 °F 62.6 °F 88% 29.87 in 1.8 mi SW 27.6 mph 35.7 mph N/A Rain Heavy Rain
6:39 PM 66.2 °F 62.6 °F 88% 29.88 in 7.0 mi SW 25.3 mph 35.7 mph N/A Rain Light Rain
6:45 PM 66.2 °F 62.6 °F 88% 29.88 in 2.0 mi SW 28.8 mph 34.5 mph N/A Rain , Thunderstorm Heavy Rain
6:53 PM 64.4 °F 60.8 °F 88% 29.89 in 3.0 mi SW 23.0 mph 32.2 mph N/A Rain , Thunderstorm Light Rain
6:58 PM 65.1 °F 61.5 °F 88% 29.87 in 10.0 mi SSW 16.1 mph 29.9 mph 0.28 in Rain , Thunderstorm Light Rain
7:02 PM 64.4 °F 62.6 °F 94% 29.90 in 7.0 mi South 15.0 mph 28.8 mph N/A Rain Light Rain
7:16 PM 64.4 °F 62.6 °F 94% 29.93 in 10.0 mi SE 12.7 mph - N/A Rain , Thunderstorm Light Thunderstorms and Rain
7:23 PM 64.4 °F 62.6 °F 94% 29.92 in 10.0 mi South 9.2 mph - N/A Rain , Thunderstorm Thunderstorms and Rain
7:49 PM 64.4 °F 62.6 °F 94% 29.91 in 6.0 mi SW 8.1 mph - N/A Rain Light Rain
7:58 PM 64.6 °F 63.0 °F 94% 29.88 in 7.0 mi WSW 10.4 mph - 0.04 in Rain Light Rain
8:18 PM 64.4 °F 62.6 °F 94% 29.92 in 10.0 mi WSW 6.9 mph - N/A   Overcast
8:58 PM 64.6 °F 62.8 °F 94% 29.91 in 10.0 mi ENE 3.5 mph - 0.01 in   Overcast
9:58 PM 63.9 °F 62.8 °F 96% 29.92 in 10.0 mi SE 3.5 mph - N/A   Mostly Cloudy
10:58 PM 62.1 °F 61.7 °F 99% 29.91 in 10.0 mi ESE 3.5 mph - N/A   Partly Cloudy
11:58 PM 61.7 °F 61.7 °F 100% 29.91 in 10.0 mi ESE 5.8 mph - N/A   Clear